Flag for Germany Weather past 2 weeks in Weil am Rhein, Baden-Württemberg, Germany

Now
63 °F

Low clouds.


Feels Like: 63 °F
Forecast: 58 / 71 °F
Wind: 9 mph from Southeast

Location: Bale-Mulhouse

Current Time: May 3, 2015 at 2:58:59 PM

Latest Report: May 3, 2015 at 2:00 PM


Visibility: 9 mi

Pressure: 29.76 "Hg

Humidity: 90%

Dew point: 60 °F

Location of Weil am RheinLocation

Historic Weather in Weil am Rhein — Graph

°F

Weil am Rhein temperature yesterday

Maximum temperature yesterday: 62 °F (at 5:00 PM)
Minimum temperature yesterday: 50 °F (at 4:00 AM)
Average temperature yesterday: 55 °F

Past Weeks' High & Low Weather Summary

 TemperatureHumidityPressure
High73 °F (Apr 24, 4:00 PM)99% (Apr 29, 7:00 AM)30.38 "Hg (Apr 29, 7:00 AM)
Low32 °F (Apr 19, 7:00 AM)19% (Apr 24, 7:00 PM)29.47 "Hg (Apr 27, 4:00 PM)
Average54 °F69%29.99 "Hg
* Reported Apr 18 1:00 PM — May 3 1:00 PM, Weil am Rhein, Weather by CustomWeather, © 2015

Note: Actual official high and low records may vary slightly from our data, if they occured in-between our weather recording intervals... More about our weather records

Advertising

Weil am Rhein weather history for previous 24 hours

 ConditionsComfort  
Time TempWeatherWind HumidityBarometerVisibility
1:00 PM
Sun, May 3
61 °FLight rain. Low clouds.7 mph94%29.78 "Hg5 mi
12:00 PM60 °FLight rain. Low clouds.3 mph95%29.78 "Hg4 mi
11:00 AM60 °FLight rain. Low clouds.2 mph91%29.78 "Hg6 mi
10:00 AM59 °FLight rain. Low clouds.2 mph94%29.79 "Hg9 mi
9:00 AM56 °FLow clouds.5 mph97%29.79 "Hg9 mi
8:00 AM56 °FLight rain. Low clouds.5 mph97%29.79 "Hg9 mi
7:00 AM55 °FLight rain. Overcast.6 mph98%29.78 "Hg7 mi
6:00 AM54 °FLight rain. Overcast.8 mph97%29.78 "Hg7 mi
4:00 AM54 °FLight rain. Overcast.6 mph97%29.77 "Hg9 mi
3:00 AM54 °FLight rain. Overcast.3 mph95%29.77 "Hg16 mi
2:00 AM54 °FLight rain. Overcast.7 mph95%29.77 "Hg6 mi
1:00 AM54 °FLight rain. Overcast.12 mph95%29.79 "Hg6 mi
12:00 AM54 °FRain. Low clouds.7 mph96%29.81 "Hg4 mi
11:00 PM
Sat, May 2
54 °FRain. Overcast.5 mph95%29.84 "Hg4 mi
10:00 PM55 °FLight rain. Overcast.2 mph92%29.87 "Hg19 mi
9:00 PM55 °FOvercast.3 mph92%29.86 "Hg19 mi
8:00 PM56 °FOvercast.3 mph90%29.86 "Hg19 mi
7:00 PM58 °FSprinkles. Overcast.10 mph83%29.86 "Hg2 mi
6:00 PM62 °FOvercast.2 mph75%29.85 "Hg11 mi
5:00 PM62 °FOvercast.2 mph76%29.86 "Hg11 mi
4:00 PM61 °FOvercast.3 mph79%29.87 "Hg11 mi
3:00 PM60 °FOvercast.6 mph83%29.88 "Hg11 mi
2:00 PM59 °FOvercast.3 mph83%29.88 "Hg6 mi
Weather by CustomWeather, © 2015

See weather overviewHow to use our weather pages